Location: Astronomy Club of Akron Observatory
(40.9700°N, 81.5606°W)
Time: 05:34:37
(UTC-04:00)

Daily predictions for brighter satellites

Satellite Brightness Start Highest point End
(mag) Time Altitude Azimuth Time Altitude Azimuth Time Altitude Azimuth
CZ-4B R/B 3.7 00:10:33 17° ENE 00:10:33 17° ENE 00:12:30 10° NNE
Cosmos 1125 Rocket 3.4 00:10:01 59° S 00:10:57 75° ESE 00:16:17 10° NNE
Cosmos 1862 Rocket 4.4 00:07:29 10° NNW 00:11:33 39° W 00:12:14 37° WSW
Cosmos 1048 Rocket 4.2 00:07:21 10° NNW 00:12:41 61° ENE 00:13:46 50° ESE
SeaSat 1 2.7 00:12:26 49° ESE 00:13:26 60° ENE 00:18:19 10° NNW
Cosmos 1980 4.3 00:16:52 10° NW 00:22:13 45° WSW 00:23:22 40° SW
Lacrosse 4 Rocket 1.7 00:20:04 10° NNW 00:24:28 62° ENE 00:24:39 62° ENE
NOSS 2-3 (D) 4.1 00:30:30 57° ESE 00:30:30 57° ESE 00:35:40 10° NE
ASTEX 1 4.1 00:26:40 10° NNE 00:31:11 38° E 00:31:11 38° E
Cosmos 2237 Rocket 3.0 00:29:48 10° NW 00:35:03 38° WSW 00:36:00 36° SW
Aureole 2 Rocket 4.3 00:32:45 10° N 00:34:34 23° NE 00:34:34 23° NE
Cosmos 1869 Rocket 3.7 00:39:09 65° W 00:39:18 66° W 00:43:46 10° N
Cosmos 372 Rocket 3.8 00:40:24 73° SSE 00:40:50 80° ESE 00:46:06 10° NNE
Cosmos 1733 Rocket 4.2 00:41:41 32° ENE 00:41:41 32° ENE 00:45:09 10° NNE
Cosmos 158 Rocket 4.3 00:36:10 10° NNW 00:41:24 56° ENE 00:42:06 52° E
Meteor 2-3 Rocket 3.7 00:41:29 61° SE 00:42:16 69° E 00:47:57 10° NNE
Landsat 5 4.3 00:42:32 45° ENE 00:42:39 45° ENE 00:46:58 10° N
Cosmos 1892 4.2 00:44:30 28° NE 00:44:30 28° NE 00:46:50 10° NNE
CZ-4C R/B 4.1 00:44:58 44° N 00:44:58 44° N 00:47:33 10° N
ERBS 4.3 00:45:24 25° WNW 00:46:12 28° NW 00:49:16 10° NNE
ALOS 2 2.7 00:48:22 69° NE 00:48:22 69° NE 00:52:34 10° N
COSMOS 2455 2.8 00:42:41 10° NW 00:48:41 68° WSW 00:49:34 59° SSW
H-2A R/B 2.8 00:46:09 10° NNE 00:49:51 62° NE 00:49:51 62° NE
ATLAS 2AS CENTAUR R/B 3.6 00:50:45 11° WSW 00:57:58 53° NW 01:05:53 10° NNE
In-Cosmos 22 Rocket 4.2 00:57:27 63° SSW 00:58:23 79° W 01:04:11 10° N
Okean 1-7 4.0 01:05:25 10° NNW 01:08:58 37° WNW 01:08:58 37° WNW
Helios 1A Rocket 3.5 01:08:30 10° NNE 01:11:55 53° NE 01:11:55 53° NE
Cosmos 2227 Rocket 4.4 01:09:53 10° W 01:14:04 21° NW 01:18:16 10° N
Cosmos 1782 3.7 01:10:50 10° N 01:14:00 43° NE 01:14:00 43° NE
Cosmos 2074 Rocket 4.2 01:13:11 49° SW 01:14:43 64° W 01:21:00 10° N
Cosmos 1610 Rocket 4.3 01:13:49 63° S 01:14:54 89° E 01:21:04 10° N
Nadezhda 3 Rocket 4.2 01:09:14 10° N 01:15:24 62° E 01:16:43 51° SE
ATLAS 3B R/B 2.9 01:09:52 10° NW 01:16:29 49° WSW 01:17:16 47° SW
Cosmos 2251 Rocket 3.3 01:13:40 10° NNW 01:19:02 90° NW 01:19:20 80° SSE
Cosmos 2263 Rocket 3.6 01:19:12 23° E 01:19:12 23° E 01:23:32 10° NE
Cosmos 1340 Rocket 3.5 01:21:31 52° N 01:21:31 52° N 01:24:35 10° N
Cosmos 44 Rocket 3.8 01:21:06 51° W 01:22:02 61° NW 01:27:15 10° NNE
Geosat 3.9 01:17:01 10° NNE 01:22:05 77° ESE 01:22:08 77° ESE
CZ-2C R/B 4.2 01:21:36 34° ESE 01:23:15 41° ENE 01:28:29 10° N
USA 238 DEB 3.6 01:16:44 10° NW 01:23:49 90° ENE 01:25:50 51° SSE
USA 238 3.6 01:16:50 10° NW 01:23:54 89° NE 01:25:57 51° SE
Cosmos 2333 Rocket 4.4 01:22:28 10° WNW 01:24:38 12° W 01:25:14 12° WSW
GEOS 3 Rocket 4.0 01:27:38 50° WSW 01:27:38 50° WSW 01:32:22 10° NW
SL-16 R/B 3.2 01:22:41 10° NW 01:27:40 32° WSW 01:27:44 32° WSW
Cosmos 1689 Rocket 4.5 01:31:12 23° NW 01:31:12 23° NW 01:32:46 10° NNW
Cosmos 2227 4.2 01:28:50 61° WSW 01:29:43 74° WNW 01:35:25 10° NNE
Cosmos 1674 Rocket 3.7 01:25:51 10° N 01:29:52 72° N 01:29:52 72° N
Cosmos 1607 3.9 01:30:31 10° NNW 01:36:41 76° ENE 01:38:19 51° SE
Cosmos 921 Rocket 3.4 01:38:18 58° NNE 01:38:18 58° NNE 01:41:45 10° NNE
CZ-4C R/B 3.2 01:31:59 10° NNW 01:39:01 63° NE 01:43:31 27° SE
Meteor 2-10 Rocket 3.9 01:34:45 10° NNW 01:40:14 58° W 01:40:45 56° WSW
Cosmos 1975 Rocket 4.2 01:36:12 10° N 01:40:14 35° ENE 01:40:19 34° E
Cosmos 2084 Rocket 4.1 01:41:26 46° N 01:41:26 46° N 01:44:28 10° NNE
Cosmos 2297 Rocket 4.5 01:37:36 10° W 01:41:25 18° NW 01:45:16 10° N
CZ-4B R/B 3.7 01:44:19 19° WNW 01:44:19 19° WNW 01:45:46 10° NW
Cosmos 2154 Rocket 4.0 01:41:41 59° SSW 01:42:56 79° W 01:49:16 10° N
Meteor 1-27 Rocket 3.8 01:37:57 10° N 01:43:50 72° E 01:44:47 60° SE
CZ-2C R/B 2.4 01:40:38 10° NNE 01:45:53 88° ESE 01:46:13 79° S
Cosmos 1908 Rocket 3.7 01:47:05 67° NNE 01:47:05 67° NNE 01:50:56 10° N
USA 234 4.5 01:41:50 10° E 01:47:48 40° NNE 01:53:47 10° NW
Cosmos 494 Rocket 3.9 01:44:40 10° NNW 01:49:55 70° WSW 01:49:59 70° WSW
SeaSat 1 4.4 01:52:14 17° W 01:52:14 17° W 01:54:34 10° WNW
Cosmos 1943 3.4 01:46:13 10° NNW 01:51:53 65° ENE 01:53:14 49° ESE
Cosmos 1862 3.8 01:58:07 58° NNE 01:58:07 58° NNE 02:01:26 10° N
NOSS 3-2 (C) 4.4 01:50:04 10° NNW 01:57:28 61° NE 02:03:50 17° SE
Cosmos 1603 4.2 01:56:11 10° NW 02:01:33 44° WSW 02:01:33 44° WSW
Meteor 2-6 Rocket 4.4 01:56:00 10° NNW 02:01:43 58° W 02:02:26 54° SW
Cosmos 1606 3.5 01:58:34 10° NNW 02:01:27 48° NNW 02:01:27 48° NNW
Lacrosse 4 Rocket 4.1 02:00:38 10° WNW 02:00:59 11° W 02:00:59 11° W
FALCON 9 R/B 4.3 01:59:03 10° W 02:03:14 19° WSW 02:03:14 19° WSW
Cosmos 1238 Rocket 3.8 02:07:28 10° NNW 02:10:17 37° NW 02:10:17 37° NW
Sich 1 Rocket 4.4 02:12:10 40° WNW 02:12:10 40° WNW 02:16:21 10° N
Cosmos 2341 Rocket 4.3 02:13:16 46° SW 02:14:47 56° W 02:21:04 10° N
NOSS 3-4 (A) 3.4 02:17:55 55° SSW 02:19:28 85° ESE 02:26:04 10° NE
NOSS 3-4 (C) 3.4 02:18:01 55° SSW 02:19:33 84° ESE 02:26:09 10° NE
SL-08 R/B 4.5 02:18:53 54° SSE 02:20:22 78° E 02:26:41 10° N
Okean 3 3.7 02:16:32 10° NNW 02:20:24 64° NW 02:20:24 64° NW
NOSS 3-2 (A) 3.9 02:13:39 10° NW 02:21:13 88° SW 02:25:29 31° SSE
Cosmos 1959 Rocket 4.4 02:24:23 55° S 02:25:55 89° E 02:32:12 10° N
SL-8 Rocket 4.0 02:30:12 51° SW 02:31:46 70° W 02:38:06 10° N
Cosmos 1378 Rocket 4.5 02:28:08 10° NNW 02:31:39 36° WNW 02:31:39 36° WNW
Cosmos 1371 Rocket 4.0 02:37:07 62° S 02:38:00 80° ESE 02:43:23 10° NNE
BREEZE-M DEB (TANK) 3.8 02:27:26 10° WNW 02:39:07 75° SSW 02:40:42 42° SE
CRYOSAT 2 4.5 02:34:19 10° N 02:39:09 65° E 02:39:55 56° SE
Cosmos 2056 Rocket 3.7 02:38:19 52° SE 02:39:13 59° ESE 02:44:23 10° NNE
Cosmos 1408 3.9 02:39:55 33° NW 02:39:55 33° NW 02:42:48 10° N
Cosmos 2218 Rocket 4.0 02:37:59 51° SSW 02:39:38 73° W 02:45:59 10° N
Cosmos 1825 3.6 02:45:14 29° WNW 02:45:14 29° WNW 02:48:07 10° NNW
ERS-2 3.9 02:41:47 10° NE 02:44:48 23° E 02:44:57 23° E
Cosmos 407 Rocket 4.5 02:41:30 10° N 02:46:25 42° ENE 02:49:42 19° SE
Cosmos 1812 4.2 02:45:08 10° NNE 02:48:37 31° ENE 02:49:35 27° ESE
Okean 2 Rocket 3.8 02:51:20 40° W 02:51:32 40° WNW 02:55:48 10° N
Cosmos 2366 rocket 4.1 02:53:00 46° SW 02:54:44 64° W 03:00:54 10° N
Meteor 2-8 Rocket 4.3 02:52:23 10° N 02:58:29 79° W 03:00:31 44° S
Cosmos 1844 Rocket 3.8 02:58:18 27° SE 03:00:16 35° ESE 03:05:22 10° NE
Okean 1 4.4 02:58:48 10° N 03:02:36 40° ENE 03:03:47 32° ESE
Cosmos 2263 Rocket 2.7 03:00:53 36° WSW 03:02:42 49° WNW 03:08:13 10° NNE
CZ-2C R/B 4.3 03:02:40 28° WSW 03:03:08 29° W 03:08:00 10° NW
SL-27 R/B 3.9 02:59:49 10° N 03:03:14 36° ENE 03:04:27 28° ESE
Cosmos 909 Rocket 4.1 03:01:27 42° SSW 03:03:51 89° WNW 03:11:13 10° NNE
RESURS DK-1 2.9 03:12:15 43° W 03:12:46 45° WNW 03:16:47 10° NNE
SL-24 DEB 4.3 03:09:44 10° N 03:14:23 71° E 03:15:46 44° SSE
Abrixas rocket 2.7 03:16:30 54° NW 03:16:38 54° NNW 03:19:56 10° NE
Cosmos 1727 Rocket 4.3 03:10:42 10° NNW 03:16:40 50° W 03:18:33 38° SW
COSMOS 2406 3.2 03:12:44 10° NNW 03:18:33 83° ENE 03:22:28 21° SSE
Cosmos 1867 3.9 03:14:10 10° NW 03:19:21 44° WSW 03:19:56 42° SW
Cosmos 1300 Rocket 3.6 03:18:47 48° SSE 03:19:51 69° E 03:24:12 10° NNE
Cosmos 2278 Rocket 3.8 03:18:50 16° SE 03:21:59 26° ESE 03:26:36 10° NE
Meteor 1-25 Rocket 4.2 03:20:05 41° SSW 03:22:11 80° W 03:28:00 10° N
IRS-P3 4.1 03:17:10 10° N 03:22:32 77° WNW 03:24:25 41° SSW
Cosmos 1624 Rocket 4.4 03:22:12 37° WSW 03:23:47 50° WNW 03:28:53 10° N
ATLAS 5 CENTAUR R/B 4.5 03:19:00 10° NNW 03:23:57 27° NE 03:29:11 10° E
USA 161 3.5 03:23:19 20° ESE 03:24:14 24° ENE 03:26:40 10° NNE
Iridium 4 Rocket 3.7 03:20:42 10° NNW 03:25:15 50° W 03:26:21 42° SW
CZ-4C R/B 3.7 03:21:09 10° NW 03:27:21 31° WSW 03:28:37 29° SW
Cosmos 1242 Rocket 3.8 03:24:35 10° NNW 03:26:54 27° WNW 03:26:54 27° WNW
Cosmos 1536 Rocket 3.9 03:25:48 10° NNW 03:29:58 44° W 03:30:27 42° WSW
USA 234 3.1 03:24:00 10° SE 03:30:31 73° SW 03:37:04 10° NW
Resurs 1-4 Rocket 3.7 03:28:04 10° NE 03:32:38 28° E 03:36:39 12° SSE
SL-08 R/B 3.3 03:32:29 38° S 03:34:19 70° WSW 03:39:14 10° NNW
ATLAS 2A CENTAUR R/B 3.9 03:38:20 27° SSW 03:40:52 32° SSE 04:02:12 10° ESE
CENTAUR R/B 3.2 03:35:35 10° NNW 03:43:27 77° NE 03:51:46 10° SE
ARIANE 5 R/B 3.1 03:40:13 10° NNE 03:45:03 48° E 03:48:13 21° SSE
Cosmos 1452 Rocket 3.4 03:42:56 35° SSW 03:45:12 83° WNW 03:50:29 10° NNE
Cosmos 1934 Rocket 4.0 03:42:14 25° S 03:46:03 82° E 03:52:14 10° N
Cosmos 1633 3.8 03:48:47 21° SE 03:50:41 36° E 03:54:02 10° NNE
AQUA 4.1 03:47:03 10° N 03:51:43 55° WNW 03:53:38 32° SW
ADEOS 3.5 03:46:43 10° NNE 03:51:58 85° WNW 03:54:44 29° SSW
CBERS-1 4.3 03:49:01 10° N 03:54:02 55° WNW 03:56:24 30° SW
Okean 1-7 Rocket 3.7 03:51:26 10° NNW 03:55:57 59° W 03:57:55 32° SSW
Cosmos 1420 Rocket 4.3 03:53:21 25° S 03:56:26 64° ESE 04:01:41 10° NNE
Cosmos 1536 3.2 03:57:35 25° SSE 03:59:49 62° E 04:03:51 10° NNE
Okean 1 Rocket 3.5 03:59:23 32° SW 04:00:57 46° W 04:05:17 10° N
COSMOS 2487 3.3 03:57:42 10° N 04:01:15 51° ENE 04:04:47 10° SSE
Cosmos 489 Rocket 4.4 03:55:24 10° NNW 04:01:37 70° WSW 04:07:26 12° S
SME Rocket 3.8 04:00:13 10° SE 04:03:48 47° ENE 04:07:47 10° N
UNKNOWN OBJECT B 4.3 04:01:25 10° NNE 04:05:10 34° E 04:08:33 12° SSE
Cosmos 1461 3.6 04:04:34 25° S 04:07:09 55° ESE 04:11:42 10° NE
NPP 4.5 04:02:34 10° N 04:07:28 36° WNW 04:10:15 22° WSW
SL-16 R/B 2.6 04:03:20 10° SSE 04:09:34 81° ENE 04:15:49 10° NNW
Okean O Rocket 3.7 04:06:14 10° NE 04:09:40 22° E 04:13:04 10° SSE
Gbstr 26 Del rocket 2.7 04:08:34 29° WSW 04:10:27 77° NW 04:14:12 10° NE
Meteor 2-15 Rocket 4.4 04:09:12 10° N 04:15:23 88° W 04:21:33 10° S
Meteor 1-19 Rocket 4.3 04:09:38 10° NNW 04:15:28 81° W 04:21:19 10° S
Cosmos 1140 Rocket 3.4 04:11:08 10° NNW 04:16:17 80° WSW 04:21:24 10° SSE
NOSS 2-2 (D) 3.5 04:16:07 27° SW 04:18:23 85° NW 04:23:08 10° NE
ERS-2 3.7 04:15:34 10° NNW 04:18:30 22° WNW 04:19:48 19° W
GP-B 4.3 04:15:16 10° NNW 04:19:01 27° W 04:20:46 21° WSW
Cosmos 1605 Rocket 4.0 04:15:16 18° SSW 04:19:59 78° W 04:26:17 10° N
Cosmos 2123 Rocket 4.1 04:17:54 10° NNW 04:24:08 62° W 04:29:54 12° S
Cosmos 1812 4.5 04:21:45 10° NW 04:24:14 16° W 04:24:45 16° W
EO 1 Del DPAF 3.2 04:21:45 13° S 04:25:07 76° WSW 04:29:02 10° NNW
Cosmos 1455 Rocket 3.5 04:21:55 12° S 04:25:58 61° E 04:30:22 10° NNE
Cosmos 1850 Rocket 3.9 04:22:43 10° NNW 04:27:58 83° WSW 04:33:14 10° SSE
Cosmos 1025 Rocket 3.1 04:23:58 10° NNW 04:28:10 55° W 04:31:24 16° SSW
CZ-2D R/B 2.2 04:22:48 10° NNE 04:28:17 89° ESE 04:33:03 14° SSW
Meteor 1-11 Rocket 4.1 04:25:35 19° SSW 04:29:44 54° WNW 04:35:36 10° N
Cosmos 1741 Rocket 4.0 04:24:28 10° NNW 04:29:47 83° WSW 04:35:01 10° SSE
NOSS 2-2 (C) 3.8 04:30:09 21° SW 04:32:49 62° NW 04:37:36 10° NNE
Cosmos 1400 Rocket 2.9 04:40:17 17° SSW 04:43:05 57° WNW 04:46:58 10° N
Cosmos 1844 Rocket 3.7 04:39:58 15° WSW 04:44:07 34° WNW 04:49:17 10° N
MOS 1-B 4.4 04:39:38 10° N 04:45:28 77° WNW 04:51:10 10° SSW
APEX 3.9 04:46:28 10° S 04:49:04 35° ESE 04:52:06 10° NE
IRS-1D 4.0 04:46:06 10° N 04:50:54 44° WNW 04:55:04 13° SW
Cosmos 1544 Rocket 3.9 04:47:57 14° SSW 04:51:32 49° W 04:55:48 10° N
Cosmos 1844 4.5 04:47:31 14° SW 04:52:00 39° WNW 04:57:24 10° N
Meteor 1-23 Rocket 4.4 04:48:09 10° NNW 04:53:42 54° W 04:59:10 10° S
Abrixas rocket 4.5 04:51:27 10° WNW 04:54:12 23° N 04:56:57 10° NE
USA 161 3.7 04:54:31 11° W 04:54:42 11° W 04:55:36 10° WNW
Cosmos 2173 Rocket 4.1 04:50:50 10° S 04:56:55 81° E 05:03:07 10° N
USA 129 1.5 04:54:53 10° S 04:57:01 82° WSW 04:59:06 10° NNW
Cosmos 1802 Rocket 4.1 04:57:38 10° S 05:03:47 81° E 05:09:56 10° N
Cosmos 2297 3.7 04:58:52 10° SSW 05:04:31 87° WNW 05:10:15 10° NNE
Centaur AC-125 4.5 05:04:09 10° S 05:05:17 11° SSE 05:06:43 10° SSE
BREEZE-M DEB (TANK) 4.3 05:01:44 10° WNW 05:05:41 22° N 05:07:48 10° NE
Cosmos 2278 Rocket 2.8 05:00:42 12° SW 05:05:46 44° WNW 05:11:13 10° NNE
CZ-4B R/B 3.6 05:03:37 10° NNE 05:08:09 62° E 05:12:34 10° S
ATLAS 5 CENTAUR R/B 2.4 05:03:10 10° NW 05:09:09 68° WSW 05:15:31 10° SSE
Cosmos 1315 Rocket 3.2 05:05:51 10° SSW 05:09:48 48° WNW 05:13:44 10° N
Resurs 1-4 Rocket 2.9 05:07:40 10° N 05:12:29 36° WNW 05:17:16 10° SW
Cosmos 1459 Rocket 4.1 05:06:37 10° SSW 05:12:58 74° W 05:19:17 10° N
IRS-1C Rocket 4.2 05:09:15 10° N 05:14:30 69° WNW 05:19:42 10° SSW
Cosmos 2100 Rocket 4.1 05:09:17 10° SSW 05:15:29 66° W 05:21:47 10° N
Meteor 1-12 Rocket 4.4 05:09:49 10° S 05:15:43 85° WNW 05:21:32 10° N
MOZ.5/SAFIR/RUBIN 5/SL-8 3.8 05:17:06 10° S 05:21:52 75° WSW 05:26:40 10° NNW
Cosmos 1174 3.3 05:18:12 10° NNW 05:21:52 84° WSW 05:24:58 10° SSE
CZ-4B R/B 3.3 05:16:18 10° NNE 05:22:00 83° WNW 05:27:39 10° SSW
NOSS 5 (C) 4.2 05:18:42 10° SW 05:22:01 82° WNW 05:25:08 10° NNE
Cosmos 1346 Rocket 3.1 05:18:21 10° N 05:22:26 74° E 05:26:26 10° SSE
ARIANE 5 R/B 4.1 05:20:15 10° NNW 05:23:49 20° WNW 05:27:24 10° WSW
Cosmos 2082 Rocket 2.2 05:18:48 10° NNW 05:24:32 78° WSW 05:30:13 10° SSE
Cosmos 1975 2.8 05:21:04 10° SSW 05:25:02 68° W 05:29:02 10° N
